Simultaneous Nadir Overpasses (SNOs) Predictions

Prediction of SNOs between GOES-15 and METOP-C Satellite Orbit:

Table of predicted SNOs for the next 14.0 days since TLE Epoch: 8/12/2023
Index Date Time (GOES-15) GOES-15 Lat,Lon METOP-C Lat,Lon Distance(km) Time Diff (sec)
1 08/13/2023 11:44:16 0.07, 147.73 -0.17, 146.69 118.16 80
2 08/15/2023 00:03:18 -0.11, 146.10 0.81, 142.03 464.78 80
3 08/15/2023 23:40:03 -0.07, 145.09 -0.46, 146.98 214.01 80
4 08/17/2023 12:01:53 0.11, 143.60 -0.17, 142.28 150.17 80
5 08/19/2023 00:20:55 -0.15, 141.96 0.81, 137.61 495.39 80
6 08/19/2023 23:57:41 -0.11, 140.94 -0.48, 142.56 184.16 80
7 08/21/2023 12:19:29 0.14, 139.44 -0.21, 137.87 179.03 80
8 08/24/2023 00:15:17 -0.13, 136.78 -0.45, 138.15 156.68 80
9 08/25/2023 12:37:05 0.17, 135.28 -0.24, 133.47 206.20 80
